[[{"header":{"parameterUnit":"m.s-1","parameterCategory":1,"la1":30.2992,"la2":30.254,"lo1":-89.0895,"lo2":-89.0443,"dy":0.0025,"dx":0.0025,"nx":19,"ny":19,"refTime":"2026-05-03T09:00:00:Z","depth":0,"parameterNumber":2,"parameterNumberName":"U-component_of_WINDS"},"data":[0,0,0,0.5762,0.5761,0.5714,0.5713,0.5647,0.5647,0,0,0,0,0,0,0,0,0,0,0,0.5774,0.5773,0.5762,0.5761,0.5714,0.5713,0.5647,0.5647,0,0,0,0,0,0,0,0,0,0,0,0.5774,0.5773,0.5773,0.5761,0.5714,0.5713,0.5647,0.5685,0,0,0,0,0,0,0,0,0,0,0.5732,0.574,0.5773,0.5773,0.576,0.5714,0.5713,0.5687,0.5683,0.5667,0,0.5653,0,0.5649,0.5642,0.5642,0,0,0,0.5762,0.5744,0.5733,0.5772,0.576,0.5714,0.5735,0.5684,0.568,0.5661,0.5652,0.565,0.5648,0.5641,0.5641,0.5548,0.5547,0,0,0.5765,0.5763,0.5737,0.573,0.5739,0.5737,0.5734,0.5682,0.5671,0.5652,0.5648,0.5647,0.5641,0.564,0.5548,0.5548,0,0,0,0.5771,0.5765,0.5756,0.5733,0.5725,0.5735,0.5732,0.5673,0.5671,0.5647,0.5646,0.5641,0.564,0.5549,0.5548,0.5521,0,0,0,0.5773,0.5769,0.5757,0.5756,0.5726,0.5699,0.5725,0.5674,0.5669,0.5646,0.5641,0.5639,0.5549,0.5548,0.5523,0.5507,0,0,0,0.5777,0.5769,0.5762,0.5756,0.5736,0.57,0.5694,0.5673,0.5667,0.5642,0.5639,0.555,0.5549,0.5525,0.551,0.5481,0,0,0,0.5781,0.5738,0.5762,0.5713,0.5736,0.5685,0.5694,0.5656,0.5631,0.564,0.5549,0.5548,0.5525,0.5512,0.5483,0.5455,0.5444,0,0,0.5726,0.5731,0.5703,0.5723,0.5667,0.5692,0.5632,0.5609,0.5608,0.5568,0.5565,0.5522,0.5511,0.5482,0.5387,0.5378,0,0,0,0.5685,0.5664,0.565,0.5627,0.561,0.5594,0.5582,0.5574,0.554,0.5587,0.5506,0.5499,0.5482,0.5468,0.5461,0.5445,0.5543,0.5543,0.5543,0.5602,0.5604,0.5557,0.5554,0.5532,0.5521,0.5502,0.5489,0.5497,0.5478,0.5464,0.5407,0.5391,0.5385,0.537,0.5452,0.5452,0.5452,0.5452,0.5519,0.5489,0.5503,0.5462,0.5465,0.543,0.5419,0.5426,0.5393,0.5417,0.5402,0.5425,0.5376,0.5362,0.545,0.545,0.5451,0.5451,0.5451,0.5463,0.5449,0.5442,0.5409,0.5384,0.5383,0.5351,0.5355,0.5358,0.5344,0.533,0.533,0.5329,0.5338,0.5338,0.5337,0.5337,0.5337,0.5337,0.5406,0.5399,0.5372,0.5353,0.5339,0.5321,0.5312,0.5298,0.5283,0.5288,0.5288,0.5296,0.5372,0.5389,0.5334,0.5334,0.5335,0.5335,0.5335,0.5316,0.5337,0.5296,0.5282,0.526,0.5235,0.5242,0.5213,0.5203,0.5187,0.52,0.5256,0.5261,0.5267,0.5281,0.5201,0.5201,0.5201,0.5201,0.5266,0.527,0.5229,0.5207,0.5186,0.5189,0.5141,0.5135,0.513,0.5124,0.5137,0.5157,0.5163,0.5164,0.5173,0.5186,0.5083,0.5083,0.5083,0.521,0.5213,0.5171,0.5169,0.5153,0.5138,0.5094,0.5067,0.5067,0.5078,0.5118,0.5123,0.5156,0.5167,0.5175,0.5188,0.5212,0,0]},{"header":{"parameterUnit":"m.s-1","parameterCategory":1,"la1":30.2992,"la2":30.254,"lo1":-89.0895,"lo2":-89.0443,"dy":0.0025,"dx":0.0025,"nx":19,"ny":19,"refTime":"2026-05-03T09:00:00:Z","depth":0,"parameterNumber":3,"parameterNumberName":"V-component_of_WINDS"},"data":[0,0,0,-4.4998,-4.5003,-4.5233,-4.5234,-4.5532,-4.5535,0,0,0,0,0,0,0,0,0,0,0,-4.4934,-4.4936,-4.4998,-4.5003,-4.5233,-4.5234,-4.5532,-4.5535,0,0,0,0,0,0,0,0,0,0,0,-4.4933,-4.4935,-4.4938,-4.5004,-4.5233,-4.5234,-4.5531,-4.5356,0,0,0,0,0,0,0,0,0,0,-4.5132,-4.5076,-4.4935,-4.4938,-4.5006,-4.5233,-4.5234,-4.5347,-4.5367,-4.543,0,-4.5489,0,-4.5517,-4.5555,-4.5556,0,0,0,-4.5,-4.506,-4.5119,-4.4938,-4.5008,-4.5233,-4.5129,-4.5358,-4.538,-4.5456,-4.5493,-4.5504,-4.5522,-4.5557,-4.5559,-4.5938,-4.594,0,0,-4.4988,-4.4977,-4.5104,-4.5133,-4.51,-4.5121,-4.5136,-4.5371,-4.541,-4.5494,-4.5511,-4.5527,-4.5559,-4.5562,-4.5936,-4.5938,0,0,0,-4.4953,-4.4968,-4.5021,-4.5121,-4.5162,-4.5128,-4.5145,-4.54,-4.5418,-4.5514,-4.553,-4.5561,-4.5565,-4.5934,-4.5937,-4.6022,0,0,0,-4.4945,-4.4948,-4.5015,-4.5011,-4.5158,-4.5284,-4.5168,-4.5402,-4.5429,-4.5529,-4.5561,-4.5568,-4.5932,-4.5936,-4.6015,-4.6064,0,0,0,-4.4917,-4.4945,-4.4979,-4.501,-4.5109,-4.5281,-4.5313,-4.5408,-4.5439,-4.5557,-4.5569,-4.5931,-4.5935,-4.6009,-4.6054,-4.6161,0,0,0,-4.4884,-4.5051,-4.498,-4.5173,-4.5107,-4.5332,-4.5311,-4.5479,-4.559,-4.5563,-4.5932,-4.5937,-4.6007,-4.6048,-4.6154,-4.6249,-4.6287,0,0,-4.5088,-4.5075,-4.5189,-4.5133,-4.5368,-4.5298,-4.5545,-4.5656,-4.5677,-4.5849,-4.5859,-4.6017,-4.6053,-4.6159,-4.6506,-4.6537,0,0,0,-4.5251,-4.5333,-4.5397,-4.5503,-4.5593,-4.5674,-4.5748,-4.579,-4.5937,-4.5764,-4.6085,-4.6107,-4.6169,-4.6215,-4.6241,-4.6295,-4.5957,-4.5957,-4.5956,-4.5525,-4.5543,-4.5733,-4.5779,-4.5882,-4.5957,-4.6042,-4.611,-4.6098,-4.6173,-4.6225,-4.6433,-4.6486,-4.6506,-4.6563,-4.6276,-4.6276,-4.6277,-4.6277,-4.5826,-4.5945,-4.5925,-4.6103,-4.612,-4.6269,-4.6348,-4.6334,-4.6475,-4.6396,-4.6452,-4.6364,-4.6539,-4.6589,-4.6283,-4.6282,-4.6281,-4.6281,-4.628,-4.6008,-4.6068,-4.6116,-4.6271,-4.6388,-4.6428,-4.6564,-4.6575,-4.6586,-4.6642,-4.6697,-4.6696,-4.6696,-4.6667,-4.6668,-4.6669,-4.6669,-4.667,-4.667,-4.6178,-4.6229,-4.6343,-4.6453,-4.6522,-4.6615,-4.6692,-4.676,-4.6838,-4.6835,-4.6836,-4.6816,-4.6553,-4.6486,-4.6682,-4.668,-4.6678,-4.6677,-4.6676,-4.6478,-4.6412,-4.6588,-4.6657,-4.6786,-4.6902,-4.6914,-4.7052,-4.711,-4.7176,-4.7144,-4.6948,-4.6935,-4.6914,-4.686,-4.714,-4.714,-4.714,-4.714,-4.6631,-4.6625,-4.6808,-4.6919,-4.7028,-4.7057,-4.7254,-4.7316,-4.7369,-4.7406,-4.7366,-4.7295,-4.7273,-4.7273,-4.7244,-4.7194,-4.7552,-4.7553,-4.7553,-4.6816,-4.6822,-4.6989,-4.7041,-4.7142,-4.7229,-4.7415,-4.7542,-4.7588,-4.757,-4.7435,-4.7417,-4.7301,-4.7263,-4.7242,-4.7198,-4.7105,0,0]}]]